Regional Weather Roundup
Issued by NWS Grand Forks, ND

Home | Current Version | Previous Version | Text Only | Print | Product List | Glossary Off
Versions: 1 2 3 4 5 6 7 8 9 10 11 12 13 14 15 16 17 18 19 20 21 22 23 24 25 26 27 28 29 30 31 32 33 34 35 36 37 38 39 40 41 42 43 44 45 46 47 48 49 50

625
ASUS43 KFGF 221631
RWRFGF
PRAIRIE TO PINES  WEATHER ROUNDUP
NATIONAL WEATHER SERVICE EASTERN NORTH DAKOTA/GRAND FORKS ND
1100 AM CDT FRI SEP 22 2017

 **SATELLITE DATA USED TO AUGMENT SKY COVER AT AUTOMATED STATIONS**
 *****  WEATHER ACROSS EASTERN NORTH DAKOTA  *****

CITY           SKY/WX    TMP DP  RH WIND       PRES   REMARKS
GRAND FORKS    CLOUDY    63  55  75 N17       29.79F
GRAND FRKS AFB CLOUDY    59  51  76 NE15      29.80F
DEVILS LAKE    CLOUDY    57  43  58 NE22G29   29.82F
FARGO          PTSUNNY   71  64  78 NE10      29.71F
WAHPETON ARPT  FAIR      81  68  65 SE16G23   29.69F
$$

 ***** WEATHER ACROSS CENTRAL AND WESTERN NORTH DAKOTA  *****

CITY           SKY/WX    TMP DP  RH WIND       PRES   REMARKS
BISMARCK       CLOUDY    56  44  64 N10       29.79R
MINOT          LGT RAIN  48  41  76 N13G25    29.90S
JAMESTOWN      CLOUDY    59  52  77 NE17G25   29.74R
MINOT AFB      CLOUDY    50  38  63 N15G23    29.89F
GARRISON         N/A     50  39  66 N13G23    29.85F
WILLISTON      CLOUDY    47  39  74 N12       29.99F
DICKINSON      CLOUDY    46  41  82 N17       29.90R
HETTINGER      CLOUDY    50  36  58 N20G29    29.86R
$$

 *****  OTHER AIRPORT OBSERVATIONS IN OUR AREA  *****

CITY           SKY/WX    TMP DP  RH WIND       PRES   REMARKS
WALHALLA       FAIR     N/A N/A N/A N17       29.85F
GRAFTON AIRPOR FAIR      63  52  67 NE14G23   29.83F
VALLEY CITY AR CLOUDY    59  59 100 NE16G24   29.76F
CANDO          CLOUDY    54  43  66 NE14      29.86F
CAVALIER APRT  FAIR      61  50  67 N14G24    29.84F
GWINNER        CLOUDY    64  64 100 NE6       29.70F FOG
ROLLA          CLOUDY    52  41  66 N18G24    29.89F
 ***** THE ABOVE OBSERVATIONS ARE NON NWS ARE NOT QUALITY
       CONTROLLED AND MAY MIS-REPORT RAIN FOR SNOW...
$$

  *****  WEATHER ACROSS NORTHERN MINNESOTA  *****

CITY           SKY/WX    TMP DP  RH WIND       PRES   REMARKS
FLAG ISLAND    FAIR      63  54  72 N10       29.85F
WARROAD        PTSUNNY   63  57  82 E9        29.87R
ROSEAU         FAIR      64  57  77 NE15      29.85S
HALLOCK          N/A     68  52  56 N12       29.83S
THF RVR FALLS  CLOUDY    66  57  72 NE16      29.80F
BAUDETTE       CLOUDY    66  62  87 N5        29.86R
WASKISH        PTSUNNY   72  66  83 NE7       29.83F
CROOKSTON      FAIR      66  59  77 E9        29.78F
STEPHEN NDAWN    N/A     64  54  68 NE10        N/A
GREENBUSH NDAW   N/A     66  54  63 NE12        N/A
$$
  *****  WEATHER ACROSS CENTRAL AND WEST MINNESOTA  *****

CITY           SKY/WX    TMP DP  RH WIND       PRES   REMARKS
FOSSTON        PTSUNNY   72  72 100 E6        29.79F
BEMIDJI        FAIR      74  65  72 SE12      29.80F
PARK RAPIDS    PTSUNNY   76  68  76 SE12      29.79F
ELBOW LAKE     FAIR      77  72  85 SE17      29.74F HAZE
WADENA         PTSUNNY   75  73  94 SE13      29.77F
DETROIT LAKES  FAIR      75  66  73 SE12      29.76F
MOORHEAD       FAIR      79  64  61 SE6       29.71F
FERGUS FALLS   FAIR      79  70  73 SE10      29.72F
MORRIS MN      FAIR      81  73  78 SE14G20   29.74S
STAPLES        CLOUDY    73  70  88 SE5       29.80S
$$
  *****  WEATHER ELSEWHERE ACROSS MINNESOTA  *****

CITY           SKY/WX    TMP DP  RH WIND       PRES   REMARKS
DULUTH         FAIR      67  64  90 SE12      29.83F
INTRNTL FALLS  CLOUDY    68  62  81 E5        29.85S
ELY            FAIR      70  61  73 CALM      29.88F
CLOQUET        FAIR      66  63  88 S7        29.87R
WHEATON        FAIR      81  72  74 E17G23    29.71F
BRAINERD       FAIR      74  68  81 SE8       29.81F
HIBBING        FAIR      71  61  70 CALM      29.83F
ALEXANDRIA     PTSUNNY   77  72  84 SE15      29.79S
SAINT CLOUD    FAIR      74  73  97 SE9       29.82S
MINNEAPOLIS    PTSUNNY   81  72  74 S9        29.85S
$$

  *****  WEATHER ACROSS SOUTH DAKOTA  *****

CITY           SKY/WX    TMP DP  RH WIND       PRES   REMARKS
SIOUX FALLS    FAIR      84  71  65 S18G29    29.73S
BROOKINGS      FAIR      81  72  74 S17       29.74S
WATERTOWN      FAIR      79  73  82 S16G24    29.70F
HURON          FAIR      83  71  67 S17G25    29.63F
SISSETON         N/A     78  74  87 SE14G20   29.69F
ABERDEEN       FAIR      84  72  67 SE20      29.63F
MITCHELL       FAIR      85  69  58 S17G28    29.66S
PIERRE         PTSUNNY   64  56  75 SW13      29.63R
MOBRIDGE       CLOUDY    65  58  78 NE14G24   29.63F
RAPID CITY     CLOUDY    54  39  58 NW25G38   29.82R
$$

  *****  SOME WEATHER IN NEARBY STATES *****

CITY           SKY/WX    TMP DP  RH WIND       PRES   REMARKS
GLASGOW MT     LGT RAIN  41  40  96 N7        30.07R
GREAT FALLS MT LGT SNOW  36  33  89 NE10      30.08R FOG
CHEYENNE WY    FAIR      58  39  49 VRB5      29.87R
SCOTTSBLUFF NE FAIR      57  40  52 NW6       29.84R
OMAHA NE       FAIR      85  70  60 S18       29.85R
DES MOINES IA  FAIR      84  71  65 S17       29.94S
DAVENPORT IA   FAIR      84  70  62 S9        30.06S
CHICAGO IL     FAIR      89  67  47 SW12      30.07S HX  92
EAU CLAIRE WI  FAIR      84  71  65 S12       29.90S
LA CROSSE WI   FAIR      86  70  58 S17       29.93F HX  90
$$

  *****  SOME NATIONAL WEATHER *****

CITY           SKY/WX    TMP DP  RH WIND       PRES   REMARKS
LA GUARDIA NY  FAIR      75  54  47 N16G24    29.99F
RALEIGH NC     FAIR      84  65  52 NE7       30.09F
ATLANTA GA     FAIR      82  69  64 E7        30.09F
NEW ORLEANS LA FAIR      86  71  60 NE9       30.00S HX  91
OKLAHOMA CITY  FAIR      80  69  69 S17G24    29.98R
ALBUQUERQUE NM PTSUNNY   73  37  27 S17       30.00R
SALT LAKE CITY CLOUDY    47  41  80 N5        29.90R
LOS ANGELES CA FAIR      66  52  60 E7        29.88R
BOISE ID       CLOUDY    43  40  89 W9        29.93R
SEATTLE WA     FAIR      54  48  80 S5        30.06S
$$

*** WEATHER ACROSS MANITOBA...SASKATCHEWAN AND ONTARIO ***
                ***ONTARIO***

CITY           SKY/WX    TMP DP  RH WIND       PRES   REMARKS
GERALDTON      FOG       68  66  94 SW7       29.91S VSB 1
THUNDER BAY    LGT RAIN  57  55  94 NE2       29.91S
SIOUX LOOKOUT  PTSUNNY   66  59  77 NW3       29.89R
TORONTO        MOSUNNY   79  61  53 VRB7      30.15F
BIG TROUT LK   SUNNY     63  52  67 NW9G17    29.83S
PICKLE LAKE    PTSUNNY   63  52  67 NW3       29.89R
DRYDEN         SUNNY     66  59  77 E8        29.88S
KENORA         MOSUNNY   64  54  68 NE10G18   29.88R
$$
                *** MANITOBA***

CITY           SKY/WX    TMP DP  RH WIND       PRES   REMARKS
BRANDON        PTSUNNY   54  39  58 NE12      29.96S
DAUPHIN        MOSUNNY   52  43  71 N12       30.01S
ISLAND LAKE    PTSUNNY   52  46  82 NW7       29.93R
PILOT MOUND      N/A     55  43  62 NE12G20     N/A
THE PAS        PTSUNNY   46  39  76 NW10      30.03R
THOMPSON       CLOUDY    45  43  93 NW13      29.95R
WINNIPEG       MOSUNNY   59  48  67 NE12      29.91S
LYNN LAKE      PTSUNNY   41  37  87 N10       30.06R
CHURCHILL      CLOUDY    43  43 100 NE25G33   29.91R
GILLAM         DRIZZLE   46  45  93 W10       29.89
$$
                ***SASKATCHEWAN***

CITY           SKY/WX    TMP DP  RH WIND       PRES   REMARKS
ESTEVAN        LGT RAIN  46  43  87 N9        30.00F
KINDERSLEY     CLOUDY    41  37  87 NE8       30.08R
LLOYDMINSTER   PTSUNNY   41  39  93 N9        30.10S
PRINCE ALBERT  PTSUNNY   43  37  81 N9        30.10R
REGINA         CLOUDY    43  39  87 N5        30.04R
YORKTON        CLOUDY    45  43  93 N7        30.03R
N. BATTLEFORD  CLOUDY    45  39  81 N8        30.09F
LA RONGE       PTSUNNY   43  37  81 NW7       30.09R
SASKATOON      LGT RAIN  45  41  87 NE3       30.09S
SWIFT CURRENT  CLOUDY    39  36  87 NW8       30.05S
$$
NOTE: THESE ARE AUTOMATED STATIONS WITH LIMITED QUALITY CONTROL
      "FAIR" INDICATES FEW OR NO CLOUDS BELOW 12,000 FEET WITH NO
      SIGNIFICANT WEATHER AND/OR OBSTRUCTIONS TO VISIBILITY.
      SKY/WX - SKY CONDITION AND SIGNIFICANT WEATHER.
      TMP - AIR TEMPERATURE.    DP   - DEWPOINT TEMPERATURE.
      RH  - RELATIVE HUMIDITY.  PRES - PRESSURE.
      HX  - HEAT INDEX.         WCI  - WIND CHILL INDEX.
$




USA.gov is the U.S. government's official web portal to all federal, state and local government web resources and services.